Погода в Боулдере

США     40°10′08″N   105°06′18″W
темп.,
°C
ветер,
м/с
пор.,
м/с
влажн.,
%
обл.,
%
осадки,
мм/ч
давл.,
гПа
погр.,
м
31 июля, сб
сб3100:00+18зсз6984100 18.6 1020190
03:00+18всв1279100 0.0 101923
06:00+18ссв2281100 0.0 102127
09:00+21ссв467290 0.0 1022850
12:00+23св346774 3.3 10211066
15:00+25ссв1356100 4.3 10201044
18:00+23всв2261100 5.1 102037
21:00+21ююв1164100 0.1 102111
1 августа, вс
вс100:00+19с1170100 0.1 102211
03:00+18ссв1172100 0.0 102111
06:00+18ссв1173100 0.0 102211
09:00+19св1173100 0.0 102415
12:00+21ююв1162100 0.2 1024355
15:00+24ю5646100 0.0 10211535
18:00+25ююв5641100 0.0 10191573
21:00+19ююв4653100 0.0 1020104
2 августа, пн
пн200:00+16ссв11657 0.0 102011
03:00+15с1172100 0.0 102011
06:00+15с2273100 0.0 102011
09:00+21с1151100 0.0 1019345
12:00+27ююв114096 0.0 10151067
15:00+28зсз4337100 0.0 10131428
18:00+24зсз6953100 0.0 1015521
21:00+22ююз6956100 0.1 1015344
3 августа, вт
вт300:00+18з2261100 0.1 101413
03:00+16ссв117847 0.0 101411
06:00+16з017597 0.0 101511
09:00+24з01425 0.0 1015333
12:00+29юв12327 0.0 10121860
15:00+32ю432425 0.0 10103457
18:00+31юз2325100 0.0 10092769
21:00+25всв1134100 0.0 101112
4 августа, ср
ср400:00+21с33535 0.0 101322
03:00+18сз11616 0.0 101411
06:00+16ссв116632 0.0 101611
09:00+24с3542100 0.0 1016785
12:00+29ссв223299 0.0 10142023
15:00+32ююз122496 0.0 10113390
18:00+20с6116493 0.1 1016283
21:00+21в3462100 0.0 1017112